Regional Weather Roundup
Issued by NWS

Home | Current Version | Previous Version | Graphics & Text | Print | Product List | Glossary On
Versions: 1 2 3 4 5 6 7 8 9 10 11 12 13 14 15 16 17 18 19 20 21 22 23 24 25 26 27
000
ASUS45 KSLC 100910
RWRUT

UTAH REGIONAL WEATHER ROUNDUP
NATIONAL WEATHER SERVICE SALT LAKE CITY UT
200 AM MST SUN DEC 10 2017

UTZ001>011-023>025-101000-

NORTHERN UTAH

CITY           SKY/WX    TMP DP  RH WIND       PRES   REMARKS
BRIGHAM CITY   PTCLDY    19  15  83 CALM      30.65S
HILL AFB       PTCLDY    24  15  66 E16       30.62S WCI  11
LOGAN          CLOUDY    21  15  78 E3        30.67F
OGDEN          PTCLDY    22  15  75 S7        30.63S WCI  13
SALT LAKE CITY PTCLDY    25  20  81 S5        30.64S WCI  19
TOOELE VALLEY  PTCLDY    18  16  93 S5        30.65S WCI  11
WENDOVER       PTCLDY    18  15  88 CALM      30.65S
HEBER CITY       N/A     10   7  85 CALM      30.60S
WEST JORDAN    PTCLDY    20  16  84 CALM      30.63S

$$

UTZ011>015-024>027-101000-

CENTRAL/NORTHEAST UTAH

CITY           SKY/WX    TMP DP  RH WIND       PRES   REMARKS
PROVO AIRPORT  PTCLDY    16  13  88 CALM      30.65R
MOAB/CANYONLAN MOCLDY    16   3  56 CALM      30.56R
DELTA          MOCLDY    12   9  85 MISG      30.61F
PRICE          PTCLDY    20   1  43 N5        30.53S WCI  13
ROOSEVELT      CLOUDY    12   5  73 W6        30.62S WCI   3
VERNAL         CLOUDY    15   5  64 W6        30.59S WCI   6

$$

UTZ013>016-019>022-027-101000-

SOUTHERN UTAH

CITY           SKY/WX    TMP DP  RH WIND       PRES   REMARKS
BRYCE CANYON   PTCLDY    10  -6  48 W12       30.57F WCI  -5
CEDAR CITY     PTCLDY    16   7  67 NE6       30.56S WCI   7
MILFORD        MOCLDY    14   8  77 CALM      30.59S
ST GEORGE      MOSUNNY   36   6  28 SE8       30.51R WCI  30
HANKSVILLE     MOCLDY    12  -4  48 CALM      30.59S
BLANDING         N/A     32   2  28 N3        30.57F

$$

REGIONAL REPORTS     COLORADO/ARIZONA

CITY           SKY/WX    TMP DP  RH WIND       PRES   REMARKS
CRAIG, CO      CLOUDY     6   2  83 CALM      30.59S
GRAND JUNCTION CLOUDY    19   5  54 E5        30.57R WCI  12
RIFLE, CO      CLOUDY    15   5  64 CALM      30.61S
MONTROSE, CO   CLOUDY    15   1  53 S8        30.60S WCI   4
CORTEZ, CO     CLOUDY    10  -4  53 CALM      30.52R
COLORADO CITY    N/A     14  -4  44 SE7       30.53R HAZE    WCI   4
PAGE, AZ       PTCLDY    33  14  45 CALM      30.53S
GRAND CANYON   MOCLDY    16  -5  39 CALM      30.53S
KINGMAN, AZ    PTCLDY    35   3  26 E5        30.41S WCI  31
FLAGSTAFF, AZ  PTCLDY    16  -1  47 NE3       30.50F

$$

REGIONAL REPORTS    NEVADA/IDAHO/WYOMING

CITY           SKY/WX    TMP DP  RH WIND       PRES   REMARKS
LAS VEGAS, NV  PTCLDY    45  10  24 SW6       30.40F
ELY, NY        PTCLDY    10  -3  55 S13       30.59F WCI  -5
ELKO, NV       MOCLDY    14  11  87 NE5       30.61R WCI   6
POCATELLO, ID  FOG       11   8  88 CALM      30.66S VSB 1/4
BURLEY, ID     FOG       20  18  92 SE3       30.65S VSB 1/2
FORT BRIDGER,    N/A     32   0  24 W14       30.58S WCI  22
EVANSTON, WY   CLOUDY    25   9  50 S7        30.57S WCI  17
ROCK SPRINGS,  CLOUDY    25   8  48 W10       30.53R WCI  15

$$




USA.gov is the U.S. government's official web portal to all federal, state and local government web resources and services.